www.pogodaiklimat.ru

Погода и климат >> Архив погоды >> Мексика >> Soto La Marina


ПОГОДА в Soto La Marina

  • Прогноз погоды в Soto La Marina
  • Монитор погоды в Soto La Marina
  • Климат города

АРХИВ ПОГОДЫ в Soto La Marina

Время (UTC), дата Ветер
(напр.,м/с)
 
Видим.   Явления Облачность Т
(С)
Тd
(С)
f
(%)
Тe
(С)
Тes
(С)
Комфортность P
(гПа)
Po
(гПа)
Тmin
(С)
Tmax
(С)
R
(мм)
R24
(мм)
S
(см)
00 15.02 В 3 7000 м мгла {туман} ясно +27.5 +17.4 54 +32 +32 очень
душно
1019.7 1017.3 +16.3 +31.8
03 15.02 ЮВ 1 6000 м ясно +21.1 +19.2 89 +26 +26 душно 1021.5 1019.1
12 15.02 ЮВ 2 6000 м ясно +19.8 +19.8 100 +24 +24 комфорт 1019.6 1017.1 +19.7 +31.8
15 15.02 ЮВ 5 9000 м ясно +22.3 +22.3 100 +30 +32 очень
душно
1020.2 1017.7
18 15.02 ЮВ 3 10 км ясно +29.6 +19.0 53 +35 +47 очень
душно
1019.0 1016.6 +18.6 +29.7
21 15.02 ЮВ 4 10 км ясно +32.7 +16.9 39 +36 +42 очень
душно
1015.2 1012.8
00 16.02 ЮВ 3 10 км ясно +29.8 +16.3 44 +33 +33 душно 1014.5 1012.1 +18.6 +33.0
03 16.02 ЮВ 5 6000 м ясно +23.0 +14.9 60 +27 +27 душно 1017.0 1014.6
12 16.02 ЮЗ 1 6000 м ясно +16.5 +15.7 95 +17 +17 1016.0 1013.5 +16.3 +33.0
15 16.02 СЗ 1 10 км ясно +19.3 +15.5 79 +22 +27 комфорт 1017.3 1014.8
21 16.02 ЮВ 3 9000 м мгла {туман} ясно +33.7 +17.1 37 +37 +45 очень
душно
1013.8 1011.4
03 17.02 ЮВ 2 6000 м 5/5 600 м
[Cu med, cong]
+22.8 +20.0 84 +29 +29 очень
душно
1016.7 1014.3
12 17.02 ЮЗ 1 6000 м ясно +19.8 +19.8 100 +24 +24 комфорт 1016.6 1014.1 +19.5 +34.2
15 17.02 ЮВ 1 10 км 4/0
[Ci]
+21.7 +21.7 100 +28 +33 душно 1017.9 1015.4
18 17.02 ЮВ 5 8000 м мгла {туман} 3/3 630 м
[Cu med, cong]
+30.0 +18.0 49 +35 +40 очень
душно
1016.9 1014.4 +19.2 +30.1
21 17.02 ЮВ 3 8000 м мгла {туман} 4/1 600 м
[Cu med, cong Ci]
+31.5 +18.3 45 +36 +42 очень
душно
1013.3 1010.9
00 18.02 В 2 10 км 4/0
[Ci]
+28.2 +18.9 57 +33 +34 очень
душно
1014.4 1012.0 +19.2 +34.0
03 18.02 В 2 5000 м ясно +22.9 +20.3 85 +30 +30 очень
душно
1017.1 1014.7
06 18.02 В 2 5000 м 4/4 300 м
[Cu med, cong]
+22.5 +19.9 85 +29 +29 очень
душно
1017.7 1015.3 +22.4 +34.0
12 18.02 В 1 5000 м 10/0 2000 м
[As op]
+19.6 +19.0 96 +23 +23 комфорт 1017.0 1014.5 +19.5 +34.0
15 18.02 В 2 10 км 3/3 600 м
[Cu med, cong]
+22.4 +18.5 79 +28 +31 душно 1018.2 1015.7
18 18.02 В 3 10 км 4/4 600 м
[Cu med, cong]
+29.5 +18.9 53 +35 +42 очень
душно
1017.5 1015.0 +19.5 +29.6
21 18.02 ЮВ 4 10 км 6/6 600 м
[Cu med, cong]
+30.6 +19.1 50 +36 +38 очень
душно
1013.3 1010.9
00 19.02 ЮВ 3 8000 м мгла {туман} ясно +28.3 +18.8 56 +33 +33 очень
душно
1013.0 1010.6 +19.5 +31.8
03 19.02 ЮВ 3 6000 м ясно +23.3 +20.3 83 +31 +31 очень
душно
1014.8 1012.4
12 19.02 В 1 6000 м ясно +20.9 +19.6 92 +27 +27 душно 1013.2 1010.8 +20.4 +31.8
15 19.02 ЮВ 1 8000 м ясно +21.0 +18.2 84 +26 +32 душно 1013.9 1011.4
18 19.02 Ю 3 10 км 5/5 600 м
[Cu med, cong]
+30.6 +19.9 53 +37 +43 очень
душно
1012.7 1010.2 +18.8 +30.7
21 19.02 ЮВ 5 10 км 6/6 600 м
[Cu med, cong]
+31.4 +18.7 47 +36 +38 очень
душно
1009.2 1006.8
00 20.02 ЮВ 5 8000 м мгла {туман} 1/1 600 м
[Cu med, cong]
+27.8 +18.8 58 +33 +33 очень
душно
1009.4 1007.0 +18.8 +32.4
03 20.02 ЮВ 4 6000 м ясно +23.8 +19.7 78 +29 +29 душно 1011.3 1008.9
06 20.02 В 3 5000 м ясно +22.3 +20.0 87 +28 +28 душно 1011.5 1009.1 +22.2 +32.4
09 20.02 В 2 5000 м ясно +21.8 +20.5 92 +28 +28 душно 1011.0 1008.6
12 20.02 ЮВ 2 6000 м 4/0
[Ci]
+22.1 +20.1 88 +28 +28 душно 1011.3 1008.9 +21.7 +32.4
15 20.02 В 3 8000 м 8/0 2000 м
[Ac As]
+24.2 +20.9 82 +30 +32 очень
душно
1012.7 1010.3
18 20.02 ЮВ 5 7000 м мгла {туман} 8/3 630 м
[Cu med, cong Ac trans]
+29.6 +20.2 57 +36 +39 очень
душно
1012.4 1010.0 +21.7 +29.9
21 20.02 ЮВ 5 7000 м мгла {туман} 5/3 630 м
[Cu med, cong Ci]
+31.6 +20.3 51 +38 +41 очень
душно
1009.5 1007.1
00 21.02 ЮВ 4 10 км мгла {туман} 1/0
[Ci fib]
+27.7 +19.2 60 +33 +33 очень
душно
1009.9 1007.5 +21.7 +32.1
03 21.02 В 3 6000 м 9/0 2000 м
[As op]
+24.9 +20.9 78 +31 +31 очень
душно
1012.4 1010.0
12 21.02 штиль 0 6000 м 4/4 600 м
[Cu med, cong]
+22.4 +21.3 94 +29 +29 очень
душно
1013.3 1010.9 +21.1 +32.1
15 21.02 штиль 0 4000 м туман местами ясно +23.1 +21.4 90 +31 +38 очень
душно
1015.7 1013.3
18 21.02 ЮВ 2 7000 м мгла {туман} 1/1 600 м
[Cu med, cong]
+32.3 +20.6 50 +39 +53 опасность
солнечного
удара
1015.0 1012.6 +21.1 +32.4
21 21.02 ЮВ 3 7000 м мгла {туман} 4/4 630 м
[Cu med, cong]
+33.5 +20.7 47 +40 +45 очень
душно
1012.6 1010.2

 

Местоположение метеостанции Soto La Marina (Мексика): широта 23.77 долгота -98.20 высота над уровнем моря 21 м.

В архиве по умолчанию представлена погода в Soto La Marina за последнюю неделю. Архивные данные за месяц целиком и за предыдущие месяцы, начиная с января 2011 года, Вы можете получить, выбрав интересующий диапазон дат из раскрывающегося списка и нажав кнопку "Ввод!".

Внимание! Время в таблицах - всемирное. Для получения местного времени необходимо прибавить поправку, которая в Soto La Marina равна -6 ч.

Смотрите также архив погоды в соседних городах и на ближайших метеорологических станциях:

Погода в Ciudad Victoria (Мексика) (95 км)
Погода в Tampico (Мексика) (178 км)
Погода в Tamuin (Мексика) (205 км)
Погода в Rio Verde (Мексика) (274 км)
Погода в Matlapa (Мексика) (280 км)
Погода в Monterrey (Мексика) (304 км)
Погода в Tuxpan (Мексика) (324 км)
Погода в San Luis Potosi (Мексика) (328 км)
Погода в Saltillo (Мексика) (334 км)
Погода в Pachuca (Мексика) (409 км)

Пояснения к столбцам:

Ветер - указаны скорость ветра в м/с - средняя за 10 мин, порывы в срок и между сроками (в фигурных скобках) и направление, откуда дует ветер: С - северный, СВ - северо-восточный, В - восточный, ЮВ - юго-восточный, Ю - южный, ЮЗ - юго-западный, З - западный, СЗ - северо-западный.
Видимость - горизонтальная дальность видимости в метрах или километрах. При видимости от 1 до 10 км при отсутствии осадков обычно наблюдается дымка, при ухудшении видимости до 1 км и менее - туман. В сухую погоду видимость может ухудшаться дымом, пылью или мглою.
Явления - указаны атмосферные явления, наблюдавшиеся в срок или в последний час перед сроком; фигурными скобками обозначены явления, наблюдавшиеся между сроками (за 1-3 часа до срока); квадратными скобками обозначены град или гололедные отложения с указанием их диаметра в мм.
Облачность - указаны через наклонную черту общая и нижняя облачность в баллах и высота нижней границы облаков в метрах; квадратными скобками обозначены формы облаков: Ci - перистые, Cs - перисто-слоистые, Cc - перисто-кучевые, Ac - высококучевые, As - высокослоистые, Sc - слоисто-кучевые, Ns - слоисто-дождевые, Cu - кучевые, Cb - кучево-дождевые. Подробнее классификацию облаков см. в Атласе облаков (PDF).
T - Температура воздуха - температура, измеренная на высоте 2 м над землей.
Td - Температура точки росы - температура, при понижении до которой содержащийся в воздухе водяной пар достигнет насыщения.
f - Относительная влажность воздуха - влажноcть воздуха, измеренная на высоте 2 м над землей.
Te - Эффективная температура - температура, которую ощущает одетый по сезону человек в тени. Характеристика душности погоды. При расчете учитывается влияние влажности воздуха и скорости ветра на теплоощущения человека.
Tes - Эффективная температура на солнце - температура, которую ощущает человек, с поправкой на солнечный нагрев. Характеристика знойности погоды. Зависит от высоты солнца над горизонтом, облачности и скорости ветра. Ночью, в пасмурную погоду, а также при ветре 12 м/с и более поправка равна нулю.
P - Атмосферное давление - приведенное к уровню моря атмосферное давление.
Po - Атмосферное давление - измеренное на уровне метеостанции атмосферное давление.
Tmin - Минимальная температура - минимум температуры воздуха на высоте 2 м над землей.
Tmax - Максимальная температура - максимум температуры воздуха на высоте 2 м над землей.
R - Количество осадков - Количество выпавших осадков за период времени, мм. При наведении курсора мыши на число - период времени, за который выпало указанное количество осадков.
R24 - Количество осадков - Количество выпавших осадков за 24 часа, мм.
S - Снежный покров - Высота снежного покрова, см. При наведении курсора мыши на число - состояние снежного покрова и степень покрытия местности в баллах.